• In Belarus
  • List of Countries
  • For 7 days
  • Water Temperature
  • Satellite Maps
  • Weather Map
  • Weather Widgets
  • user-avatar
    Login

    Hourly Weather Varadero

    Today, 23 May, Thursday

    Time Temperature Precipitation Wind Pressure Humidity
    00:00 +27°C° 0 mm 5 mps 762 mmHg 73%
    01:00 +27°C° 0 mm 5 mps 762 mmHg 74%
    02:00 +27°C° 0 mm 5 mps 762 mmHg 75%
    03:00 +27°C° 0 mm 5 mps 762 mmHg 76%
    04:00 +26°C° 0 mm 5 mps 761 mmHg 77%
    05:00 +27°C° 0.1 mm 5 mps 762 mmHg 76%
    06:00 +28°C° 0.1 mm 6 mps 762 mmHg 75%
    07:00 +28°C° 0.1 mm 6 mps 762 mmHg 74%
    08:00 +29°C° 0.3 mm 6 mps 762 mmHg 71%
    09:00 +30°C° 0.3 mm 7 mps 762 mmHg 67%
    10:00 +32°C° 0.3 mm 7 mps 762 mmHg 64%
    11:00 +33°C° 0.1 mm 8 mps 762 mmHg 62%
    12:00 +33°C° 0.1 mm 8 mps 762 mmHg 60%
    13:00 +34°C° 0.1 mm 8 mps 762 mmHg 58%
    14:00 +34°C° 0 mm 8 mps 762 mmHg 59%
    15:00 +33°C° 0 mm 9 mps 761 mmHg 59%
    16:00 +33°C° 0 mm 9 mps 761 mmHg 59%
    17:00 +32°C° 0 mm 9 mps 761 mmHg 62%
    18:00 +31°C° 0 mm 8 mps 761 mmHg 66%
    19:00 +29°C° 0 mm 8 mps 761 mmHg 69%
    20:00 +29°C° 0 mm 8 mps 761 mmHg 69%
    21:00 +28°C° 0 mm 7 mps 762 mmHg 70%
    22:00 +28°C° 0 mm 7 mps 762 mmHg 71%
    23:00 +28°C° 0 mm 7 mps 762 mmHg 71%

    Tomorrow, 24 May, Friday

    Time Temperature Precipitation Wind Pressure Humidity
    00:00 +28°C° 0 mm 6 mps 762 mmHg 72%
    01:00 +27°C° 0 mm 6 mps 762 mmHg 73%
    02:00 +27°C° 0.1 mm 5 mps 761 mmHg 76%
    03:00 +27°C° 0.1 mm 5 mps 761 mmHg 78%
    04:00 +27°C° 0.1 mm 5 mps 761 mmHg 80%
    05:00 +27°C° 0.2 mm 6 mps 761 mmHg 80%
    06:00 +27°C° 0.2 mm 6 mps 761 mmHg 80%
    07:00 +28°C° 0.2 mm 6 mps 761 mmHg 80%
    08:00 +29°C° 0.2 mm 7 mps 761 mmHg 76%
    09:00 +30°C° 0.2 mm 7 mps 761 mmHg 71%
    10:00 +32°C° 0.2 mm 7 mps 762 mmHg 67%
    11:00 +32°C° 0.1 mm 8 mps 761 mmHg 65%
    12:00 +33°C° 0.1 mm 8 mps 761 mmHg 63%
    13:00 +33°C° 0.1 mm 8 mps 761 mmHg 62%
    14:00 +33°C° 0 mm 8 mps 761 mmHg 62%
    15:00 +33°C° 0 mm 8 mps 760 mmHg 62%
    16:00 +32°C° 0 mm 8 mps 760 mmHg 62%
    17:00 +31°C° 0 mm 8 mps 760 mmHg 66%
    18:00 +29°C° 0 mm 8 mps 760 mmHg 70%
    19:00 +28°C° 0 mm 7 mps 760 mmHg 73%
    20:00 +28°C° 0 mm 7 mps 761 mmHg 73%
    21:00 +28°C° 0 mm 7 mps 761 mmHg 73%
    22:00 +28°C° 0 mm 7 mps 761 mmHg 73%
    23:00 +28°C° 0 mm 7 mps 761 mmHg 74%

    Day after tomorrow, 25 May, Saturday

    Time Temperature Precipitation Wind Pressure Humidity
    00:00 +27°C° 0 mm 7 mps 761 mmHg 76%
    01:00 +27°C° 0 mm 6 mps 761 mmHg 77%
    02:00 +27°C° 0.1 mm 6 mps 760 mmHg 78%
    03:00 +27°C° 0.1 mm 6 mps 760 mmHg 80%
    04:00 +27°C° 0.1 mm 6 mps 760 mmHg 81%
    05:00 +27°C° 0.2 mm 6 mps 760 mmHg 80%
    06:00 +28°C° 0.2 mm 6 mps 760 mmHg 79%
    07:00 +28°C° 0.2 mm 6 mps 760 mmHg 78%
    08:00 +29°C° 0.3 mm 6 mps 761 mmHg 72%
    09:00 +30°C° 0.3 mm 7 mps 761 mmHg 67%
    10:00 +33°C° 0.3 mm 7 mps 761 mmHg 61%
    11:00 +33°C° 0.1 mm 8 mps 761 mmHg 59%
    12:00 +34°C° 0.1 mm 8 mps 761 mmHg 57%
    13:00 +35°C° 0.1 mm 8 mps 761 mmHg 54%
    14:00 +34°C° 0 mm 8 mps 760 mmHg 56%
    15:00 +34°C° 0 mm 8 mps 760 mmHg 57%
    16:00 +33°C° 0 mm 8 mps 759 mmHg 59%
    17:00 +32°C° 0 mm 8 mps 760 mmHg 63%
    18:00 +31°C° 0 mm 8 mps 760 mmHg 68%
    19:00 +29°C° 0 mm 8 mps 760 mmHg 72%
    20:00 +29°C° 0.2 mm 8 mps 760 mmHg 74%
    21:00 +29°C° 0.2 mm 8 mps 761 mmHg 76%
    22:00 +29°C° 0.2 mm 8 mps 761 mmHg 78%
    23:00 +28°C° 0.4 mm 7 mps 761 mmHg 79%

    26 May, Sunday

    Time Temperature Precipitation Wind Pressure Humidity
    00:00 +28°C° 0.4 mm 7 mps 761 mmHg 80%
    01:00 +28°C° 0.4 mm 7 mps 761 mmHg 81%
    02:00 +28°C° 0 mm 6 mps 761 mmHg 81%
    03:00 +28°C° 0 mm 6 mps 760 mmHg 81%
    04:00 +27°C° 0 mm 6 mps 760 mmHg 82%
    05:00 +28°C° 0.1 mm 6 mps 760 mmHg 80%
    06:00 +29°C° 0.1 mm 6 mps 761 mmHg 78%
    07:00 +29°C° 0.1 mm 6 mps 761 mmHg 76%
    08:00 +30°C° 0.1 mm 7 mps 761 mmHg 70%
    09:00 +33°C° 0.1 mm 7 mps 761 mmHg 64%
    10:00 +34°C° 0.1 mm 7 mps 762 mmHg 58%
    11:00 +34°C° 0 mm 8 mps 761 mmHg 57%
    12:00 +35°C° 0 mm 8 mps 761 mmHg 56%
    13:00 +35°C° 0 mm 9 mps 761 mmHg 55%
    14:00 +35°C° 0 mm 9 mps 760 mmHg 58%
    15:00 +34°C° 0 mm 9 mps 760 mmHg 60%
    16:00 +33°C° 0 mm 9 mps 759 mmHg 63%
    17:00 +32°C° 0 mm 8 mps 760 mmHg 66%
    18:00 +31°C° 0 mm 8 mps 760 mmHg 68%
    19:00 +29°C° 0 mm 8 mps 760 mmHg 71%
    20:00 +29°C° 0 mm 7 mps 761 mmHg 71%
    21:00 +29°C° 0 mm 7 mps 761 mmHg 72%
    22:00 +29°C° 0 mm 7 mps 761 mmHg 72%
    23:00 +28°C° 0 mm 6 mps 761 mmHg 73%

    27 May, Monday

    Time Temperature Precipitation Wind Pressure Humidity
    00:00 +28°C° 0 mm 6 mps 761 mmHg 74%
    01:00 +28°C° 0 mm 6 mps 760 mmHg 75%
    02:00 +28°C° 0 mm 6 mps 760 mmHg 76%
    03:00 +28°C° 0 mm 6 mps 760 mmHg 78%
    04:00 +27°C° 0 mm 6 mps 759 mmHg 80%
    05:00 +28°C° 0 mm 6 mps 760 mmHg 79%
    06:00 +28°C° 0 mm 6 mps 760 mmHg 77%
    07:00 +29°C° 0 mm 6 mps 760 mmHg 76%
    08:00 +30°C° 0.1 mm 6 mps 760 mmHg 71%
    09:00 +32°C° 0.1 mm 7 mps 761 mmHg 66%
    10:00 +33°C° 0.1 mm 7 mps 761 mmHg 60%
    11:00 +34°C° 0.1 mm 7 mps 760 mmHg 59%
    12:00 +34°C° 0.1 mm 7 mps 760 mmHg 57%
    13:00 +35°C° 0.1 mm 8 mps 759 mmHg 55%
    14:00 +35°C° 0 mm 8 mps 759 mmHg 57%
    15:00 +35°C° 0 mm 8 mps 759 mmHg 58%
    16:00 +34°C° 0 mm 8 mps 758 mmHg 59%
    17:00 +33°C° 0.2 mm 8 mps 759 mmHg 64%
    18:00 +32°C° 0.2 mm 8 mps 759 mmHg 69%
    19:00 +30°C° 0.2 mm 7 mps 759 mmHg 75%
    20:00 +29°C° 0.1 mm 7 mps 760 mmHg 76%
    21:00 +29°C° 0.1 mm 7 mps 760 mmHg 78%
    22:00 +29°C° 0.1 mm 6 mps 760 mmHg 80%
    23:00 +29°C° 0 mm 6 mps 760 mmHg 81%

    28 May, Tuesday

    Time Temperature Precipitation Wind Pressure Humidity
    00:00 +28°C° 0 mm 6 mps 760 mmHg 81%
    01:00 +28°C° 0 mm 5 mps 759 mmHg 82%
    02:00 +28°C° 0 mm 5 mps 759 mmHg 83%
    03:00 +28°C° 0 mm 5 mps 759 mmHg 84%
    04:00 +27°C° 0 mm 5 mps 758 mmHg 85%
    05:00 +28°C° 0 mm 5 mps 759 mmHg 83%
    06:00 +28°C° 0 mm 5 mps 759 mmHg 80%
    07:00 +29°C° 0 mm 5 mps 759 mmHg 78%
    08:00 +30°C° 0 mm 5 mps 759 mmHg 71%
    09:00 +33°C° 0 mm 6 mps 759 mmHg 64%
    10:00 +34°C° 0 mm 6 mps 760 mmHg 57%
    11:00 +35°C° 0 mm 6 mps 759 mmHg 55%
    12:00 +36°C° 0 mm 7 mps 759 mmHg 54%
    13:00 +37°C° 0 mm 8 mps 759 mmHg 53%
    14:00 +37°C° 0.2 mm 8 mps 758 mmHg 55%
    15:00 +35°C° 0.2 mm 8 mps 758 mmHg 56%
    16:00 +35°C° 0.2 mm 8 mps 758 mmHg 58%
    17:00 +34°C° 0.1 mm 8 mps 758 mmHg 63%
    18:00 +32°C° 0.1 mm 8 mps 759 mmHg 68%
    19:00 +30°C° 0.1 mm 7 mps 759 mmHg 73%
    20:00 +30°C° 0 mm 7 mps 759 mmHg 75%
    21:00 +29°C° 0 mm 7 mps 760 mmHg 77%
    22:00 +29°C° 0 mm 7 mps 760 mmHg 79%
    23:00 +29°C° 0 mm 7 mps 760 mmHg 79%
    Show more